User: anonymous   Login
Location: Pcim
(49.7500°N, 19.9670°E)
Time: 09:06:12
(UTC+02:00)
Language:

MOZHAYETS 4 - Orbit

View from above orbital plane
View from above orbital plane
View from above satellite
View from above satellite

Ground track
Ground track

The orbit data is extracted from the following two-line orbital elements,

1 27939U 03042A   24203.19861137  .00002823  00000-0  47759-3 0  9996
2 27939  98.2943 359.9452 0011077 317.0459 216.0273 14.70124821113274
Epoch (UTC): 21 July 2024 04:46:00
Eccentricity: 0.0011077
inclination: 98.2943°
perigee height: 653 km
apogee height: 668 km
right ascension of ascending node: 359.9452°
argument of perigee: 317.0459°
revolutions per day: 14.70124821
mean anomaly at epoch: 216.0273°
orbit number at epoch: 11327

The dashed part of the orbit path shows where the satellite is in the earth's shadow,  

DLR